CDT,Max TemperatureF,Mean TemperatureF,Min TemperatureF,Max Dew PointF,MeanDew PointF,Min DewpointF,Max Humidity, Mean Humidity, Min Humidity, Max Sea Level PressureIn, Mean Sea Level PressureIn, Min Sea Level PressureIn, Max VisibilityMiles, Mean VisibilityMiles, Min VisibilityMiles, Max Wind SpeedMPH, Mean Wind SpeedMPH, Max Gust SpeedMPH,PrecipitationIn, CloudCover, Events, WindDirDegrees
2011-10-1,84,66,48,32,29,27,50,28,14,30.22,30.19,30.11,10,10,10,22,8,31,0.00,0,,174
2011-10-2,93,70,46,41,35,32,62,29,13,30.20,30.14,30.04,10,10,10,22,10,29,0.00,0,,194
2011-10-3,93,76,59,46,40,32,55,31,12,30.17,30.12,30.08,10,10,10,20,13,30,0.00,0,,206
2011-10-4,86,68,51,43,37,32,58,31,14,30.20,30.13,30.04,10,10,10,24,12,32,0.00,0,,193
2011-10-5,69,64,59,59,45,32,88,54,30,30.09,30.00,29.92,10,10,10,31,17,37,0.01,4,Rain,168
2011-10-6,80,70,59,59,56,52,88,68,48,29.88,29.82,29.72,10,10,10,36,28,47,0.00,2,,161
2011-10-7,84,75,66,63,59,55,88,59,37,29.93,29.85,29.77,10,10,10,32,24,41,0.00,2,,162
2011-10-8,73,62,51,61,51,43,94,72,48,30.06,29.92,29.78,10,10,2,32,19,43,0.17,1,Rain,173
2011-10-9,59,54,48,52,44,41,100,75,55,30.15,30.10,30.06,10,10,10,12,5,17,0.01,4,Rain,16
2011-10-10,73,58,42,55,49,43,100,76,38,30.12,30.04,29.92,10,8,0,25,6,31,0.00,4,Fog,203
2011-10-11,80,66,51,54,51,37,100,66,21,29.94,29.85,29.72,10,10,10,25,16,33,0.00,0,,211
2011-10-12,77,64,50,55,43,32,100,58,21,30.03,29.92,29.79,10,7,1,23,7,31,0.00,0,,343
2011-10-13,78,60,41,37,36,32,81,48,20,30.13,30.04,29.89,10,10,10,17,6,23,0.00,0,,220
2011-10-14,77,62,46,45,43,41,87,53,29,30.05,29.95,29.89,10,10,10,14,5,23,0.00,0,,64
2011-10-15,82,62,42,46,39,36,81,49,23,30.16,30.08,29.99,10,10,7,15,5,18,0.00,0,,207
2011-10-16,77,65,51,48,42,36,72,46,26,30.07,30.01,29.98,10,10,10,18,11,23,0.00,0,,339
2011-10-17,71,56,42,45,40,36,81,62,33,30.15,29.95,29.81,10,10,10,28,8,41,0.00,2,,4
2011-10-18,60,48,37,41,31,21,93,52,22,30.28,30.22,30.15,10,10,10,30,14,37,0.00,1,,348
2011-10-19,64,48,33,28,25,21,75,42,20,30.25,30.17,30.06,10,10,10,16,9,25,0.00,0,,326
2011-10-20,69,50,32,32,29,27,81,47,21,30.07,30.01,29.95,10,10,10,14,3,23,0.00,0,,115
2011-10-21,80,56,33,34,31,27,93,47,15,30.18,30.11,30.05,10,10,10,12,4,16,0.00,0,,181
2011-10-22,77,58,39,50,41,34,81,56,34,30.11,30.05,29.99,10,10,10,10,3,,0.00,0,,40
2011-10-23,80,60,41,45,37,28,93,54,15,30.16,30.10,30.06,10,10,7,13,7,18,0.00,0,,235
2011-10-24,86,68,50,46,39,32,62,39,18,30.17,30.09,29.95,10,10,10,32,12,44,0.00,0,,219
2011-10-25,86,72,57,43,37,28,52,32,13,29.95,29.90,29.82,10,10,10,24,14,32,0.00,0,,207
2011-10-26,57,50,42,39,36,32,76,60,44,30.14,30.05,29.92,10,10,10,21,14,28,0.00,6,,24
2011-10-27,46,39,32,36,33,28,100,82,50,30.22,30.18,30.13,10,9,2,20,10,28,0.10,6,Rain-Snow,4
2011-10-28,59,44,30,36,29,19,100,69,22,30.33,30.27,30.21,10,9,5,9,6,,0.00,0,,245
2011-10-29,68,50,33,43,37,32,93,64,33,30.26,30.06,29.89,10,10,10,28,13,36,0.00,0,,213
2011-10-30,64,50,37,41,32,27,93,52,24,30.24,30.14,29.94,10,10,10,15,5,20,0.00,0,,23
2011-10-31,77,57,37,37,34,32,87,52,19,30.21,30.10,29.94,10,10,10,26,10,33,0.00,0,,217